RH
12 12 11 12 16 18 18 17 15 14 14 15 14 14 15 14 15 14 14 15 15 15 16 17 17 18 18 17 17 18 18 18 20 20 22 24 23 22 20 16 16 17 17 16 16 16 16 16 16 16 16 16 15 15 17 19 21 22 22 23 23 23 23 21 21 20 21 23 25 26 28 29 31 33 32 31 31 31 32 34 34 35 38 40 42 43 42 41 38 36 34 33 33 30 27 27 28
12 13 13 14 16 17 19 18 14 14 13 15 14 13 14 14 14 12 12 13 15 16 16 17 18 18 19 18 18 17 18 20 21 21 23 24 23 22 19 17 17 18 18 17 18 19 19 18 18 18 17 17 16 15 14 16 18 20 21 23 24 25 26 25 24 22 21 22 23 24 25 27 28 29 30 30 31 30 29 30 30 32 35 36 38 40 42 44 43 41 39 38 38 35 31 27 24
12 14 15 15 16 17 19 16 14 14 12 13 13 12 12 13 13 11 11 13 15 16 16 18 17 18 18 18 18 17 19 22 21 22 23 24 24 21 19 20 20 19 20 19 20 20 20 19 18 18 18 17 17 16 15 15 17 18 20 22 23 25 26 27 27 26 25 24 25 25 25 26 27 27 27 28 28 28 27 26 25 27 29 31 34 39 41 43 43 43 42 41 41 39 36 32 27
13 14 14 16 17 16 16 13 13 14 11 11 11 11 12 13 12 11 13 15 16 17 17 18 17 18 18 17 18 17 20 23 22 22 24 25 24 21 21 22 21 21 20 20 20 19 19 19 19 18 17 17 16 17 16 16 16 17 18 19 21 22 23 24 25 26 26 26 27 28 27 27 28 28 27 26 26 25 25 24 24 23 24 26 29 33 36 38 40 42 43 42 42 39 36 34 31
12 12 12 15 16 14 13 12 12 12 11 11 10 11 12 12 12 12 14 17 17 17 18 18 18 19 19 19 19 18 21 22 22 23 24 24 22 21 22 23 22 21 20 19 18 18 19 19 19 18 17 17 16 16 16 16 17 16 16 17 17 18 19 19 20 21 22 24 25 26 27 28 29 30 29 28 28 26 25 24 23 22 22 23 24 26 28 31 36 40 42 43 42 41 37 35 33
11 10 11 14 14 12 12 12 12 11 11 10 10 11 12 12 12 13 16 17 18 18 18 18 18 19 19 19 19 20 21 21 23 23 23 23 21 21 23 23 21 20 19 18 18 18 18 18 18 17 17 17 17 16 16 16 16 16 16 15 15 15 15 15 16 17 18 19 21 22 23 25 27 28 29 29 29 28 27 26 25 25 23 22 22 22 24 27 31 34 36 38 39 38 37 36 35
12 11 12 12 11 11 12 13 12 11 11 11 11 12 12 12 13 15 16 17 18 18 17 17 18 17 17 19 19 20 20 20 22 22 22 22 22 22 23 22 20 19 18 18 18 18 18 17 17 16 16 16 16 16 16 16 15 15 15 15 15 14 14 15 15 16 16 17 17 18 19 20 21 22 23 24 25 26 26 26 26 26 25 24 23 23 24 25 27 29 30 32 33 34 36 37 36
12 13 12 11 11 11 11 12 12 10 11 12 12 13 12 14 15 15 16 17 17 18 17 18 18 17 17 18 19 19 20 20 20 21 20 21 22 23 23 21 19 19 19 19 18 18 17 17 16 16 16 16 16 16 15 15 15 14 14 14 14 14 14 14 14 15 15 15 16 16 16 16 17 17 17 18 19 20 21 21 23 24 25 25 25 25 25 26 27 28 28 29 31 31 32 32 32
12 12 12 11 11 12 11 11 12 12 13 14 14 15 15 16 17 16 17 17 17 18 18 19 19 17 17 18 19 19 20 19 19 20 21 20 22 22 21 20 19 19 19 19 18 18 17 16 16 15 16 16 15 15 15 15 15 14 14 13 13 13 12 12 12 12 13 13 13 13 14 14 15 15 15 15 15 15 15 16 17 19 21 22 24 25 25 26 27 28 28 29 29 29 29 29 29
12 12 13 13 12 13 13 13 14 14 15 15 15 16 17 18 18 17 17 17 18 18 19 20 19 18 18 18 19 20 20 19 19 21 21 21 21 20 20 20 20 20 20 19 19 18 17 17 16 16 16 16 16 16 16 16 16 15 14 13 13 12 11 11 11 11 11 11 11 11 11 11 12 12 12 12 12 12 13 13 13 14 15 17 18 21 23 25 26 27 27 28 28 29 29 29 29
15 14 15 16 16 16 16 16 16 16 16 16 16 17 18 19 19 19 18 18 19 19 20 21 19 19 19 19 19 19 20 20 20 20 20 20 20 19 19 20 20 20 20 19 19 18 17 17 16 16 17 16 17 17 17 17 17 16 14 13 12 11 11 10 10 10 10 10 10 10 10 10 10 10 10 10 10 10 11 11 11 11 12 12 13 14 17 19 22 24 25 26 26 27 27 28 30
16 17 17 17 18 17 18 18 17 17 17 17 17 18 19 20 20 20 20 20 20 21 21 21 19 20 19 19 20 19 19 20 20 20 19 19 19 19 19 20 20 20 20 19 19 18 18 17 17 17 17 17 18 18 18 18 17 16 14 13 12 11 11 10 10 10 10 10 10 10 10 10 10 10 10 10 11 10 10 10 10 10 10 10 11 12 12 13 15 18 19 21 22 23 24 25 27
18 19 17 18 19 18 19 18 18 19 18 18 18 19 20 21 21 20 21 21 22 22 22 22 21 21 20 20 21 20 19 21 21 20 19 19 19 19 19 20 20 20 20 20 19 19 19 18 18 18 17 17 18 18 18 18 16 15 14 14 13 12 11 11 11 11 11 10 11 11 11 11 11 11 11 11 11 11 11 11 11 10 10 10 10 11 11 12 12 14 14 15 16 17 19 21 23
19 20 18 19 21 20 20 19 19 20 19 19 20 20 21 21 21 21 22 22 23 23 23 24 24 23 22 21 22 21 20 21 21 21 20 20 19 19 20 20 20 20 20 20 20 19 19 19 19 19 18 18 18 19 18 17 15 15 15 14 14 13 12 12 11 11 11 11 11 11 11 11 11 12 12 12 11 12 12 12 12 12 12 11 11 11 11 11 12 12 13 13 13 14 16 18 19
18 19 20 20 21 20 20 20 20 20 19 19 20 20 21 21 22 22 22 22 23 24 24 24 25 24 23 22 22 22 21 21 21 21 21 21 20 20 20 21 21 21 21 20 20 20 20 20 20 20 19 19 19 18 17 16 16 16 15 15 14 14 13 13 12 12 12 11 11 11 11 11 12 12 12 12 12 12 12 12 12 12 12 12 12 12 12 12 12 12 12 12 12 12 14 15 17
18 19 20 19 19 20 20 20 21 20 19 19 20 20 20 21 21 22 22 22 22 23 24 24 25 24 23 23 22 22 22 22 22 22 23 22 22 21 21 22 22 22 21 21 21 21 20 20 20 20 20 20 19 18 16 16 16 16 16 16 15 15 14 14 13 12 12 12 11 11 11 11 11 12 12 12 12 12 12 12 13 13 12 12 12 12 12 12 12 12 11 11 11 12 12 13 14
18 19 18 18 19 20 20 20 20 20 19 20 21 21 20 21 22 22 22 22 23 23 23 24 24 23 22 22 21 21 22 22 22 23 23 23 23 22 22 22 22 22 21 21 21 20 20 20 20 20 20 20 18 17 16 16 16 16 16 17 17 16 15 14 14 13 13 12 12 12 12 12 11 11 12 12 12 12 13 13 13 13 13 13 13 12 12 12 12 12 11 11 11 11 11 11 12
18 18 17 17 18 18 18 19 19 19 19 20 21 21 20 20 22 22 22 22 23 23 24 24 23 22 22 21 21 21 21 22 22 23 23 23 23 23 22 22 22 21 21 21 21 20 20 20 21 21 21 20 18 16 16 16 16 16 17 17 17 17 17 16 15 14 13 13 13 12 12 12 12 12 12 12 13 13 13 13 13 13 14 13 13 13 13 12 12 12 11 11 11 11 11 11 11
17 17 16 16 17 17 17 17 18 19 19 19 20 21 20 20 21 22 21 22 23 23 23 23 23 23 23 22 22 22 22 22 22 23 23 23 22 22 22 23 22 21 21 21 21 20 21 21 21 21 22 20 18 17 16 16 16 17 17 17 18 17 17 17 16 15 14 13 13 13 13 13 13 12 12 13 13 13 13 14 14 14 14 14 14 14 13 13 13 12 12 11 11 10 10 10 10
17 16 15 15 17 17 17 17 17 17 18 18 19 20 21 20 21 21 21 21 22 22 21 22 23 23 23 23 23 23 23 23 23 23 23 22 22 22 22 23 22 22 21 21 21 21 21 21 21 22 22 20 18 17 17 17 17 17 18 18 18 18 18 18 17 16 15 15 14 13 13 13 13 13 13 13 13 13 14 14 14 14 14 14 14 14 14 14 13 12 12 11 11 10 10 10 10
16 15 14 15 16 16 15 16 16 16 17 17 18 19 20 20 20 20 20 20 20 20 20 21 22 22 22 22 23 23 24 24 24 24 24 23 23 23 23 23 23 22 21 21 21 21 21 21 21 22 21 20 18 17 17 17 18 18 18 18 18 18 18 18 17 17 16 16 15 15 14 14 14 14 14 14 14 14 14 14 14 14 14 14 14 14 13 13 13 13 12 11 11 10 10 10 10
14 13 13 14 15 15 14 15 15 15 16 16 17 17 17 18 18 18 18 18 18 18 19 20 20 20 20 20 21 22 23 24 24 24 24 24 24 24 24 25 24 23 22 22 22 21 21 21 21 21 21 20 18 18 18 18 18 18 19 18 18 19 18 18 17 17 16 16 16 16 15 15 15 15 15 14 15 14 14 14 14 14 14 14 14 13 13 13 12 12 11 11 11 10 10 10 10
13 12 13 13 14 13 13 14 14 14 15 15 15 15 16 16 16 16 16 16 16 17 18 18 18 19 18 18 19 20 21 22 23 24 25 25 25 25 25 25 25 24 23 23 22 22 21 21 21 21 21 20 19 18 18 18 19 19 19 19 19 19 19 18 18 17 17 17 17 16 16 15 15 15 15 15 15 15 14 14 14 14 14 14 14 14 13 13 12 12 11 11 10 10 10 10 10
12 12 12 13 13 13 13 13 13 13 14 14 14 14 14 15 14 14 14 15 16 17 17 17 17 17 17 17 18 18 18 20 21 23 24 25 25 26 26 26 26 25 24 24 23 23 22 22 22 22 21 21 20 19 19 19 19 20 19 19 19 19 19 18 18 18 18 18 17 17 16 16 15 15 15 15 15 15 15 15 14 14 14 14 14 14 14 13 13 12 12 11 11 10 10 10 10
12 11 12 13 13 13 13 13 13 13 13 13 13 13 13 13 14 14 14 15 16 16 16 16 16 17 17 17 17 17 18 18 19 21 23 25 26 26 27 27 27 26 25 25 24 23 23 23 22 22 22 21 20 20 20 20 20 20 20 20 19 19 19 18 18 18 18 18 18 17 17 16 16 16 16 16 16 15 15 14 14 14 15 15 14 14 14 13 13 12 12 12 11 11 10 10 10
12 12 13 13 13 13 13 13 13 13 13 14 13 12 12 12 13 12 12 14 15 15 15 15 15 15 16 17 16 17 17 17 18 19 21 22 24 25 27 27 27 27 26 25 25 24 23 23 22 22 22 22 21 21 21 21 22 21 21 20 20 19 19 19 18 18 18 18 18 18 17 17 17 17 17 16 16 15 15 14 14 15 14 14 14 14 14 13 13 12 12 12 12 11 11 10 10
13 13 13 13 13 13 13 13 13 13 13 13 13 12 12 13 12 10 10 12 13 13 14 14 14 15 15 15 16 16 17 17 18 18 19 21 22 24 25 27 28 27 26 26 26 25 25 24 23 23 22 22 22 22 22 22 22 22 21 21 20 20 19 19 18 18 18 18 18 18 18 18 17 17 16 16 15 15 15 15 15 14 14 14 14 14 14 14 13 13 12 12 12 11 11 11 11
14 13 13 12 12 13 13 12 13 13 12 13 13 13 13 14 12 10 10 11 11 11 12 13 14 14 14 14 14 15 16 17 18 18 18 19 21 22 23 25 27 28 27 26 26 26 25 25 24 24 23 22 22 22 22 22 22 22 21 21 20 20 20 20 19 19 19 19 19 19 19 18 17 17 16 16 15 15 15 14 14 14 14 14 14 14 14 13 13 13 12 12 12 12 12 11 11
14 13 12 11 11 12 12 13 13 12 12 13 13 12 12 13 11 10 10 10 10 10 10 11 12 12 12 13 13 14 15 16 16 17 17 18 20 21 22 23 25 27 27 27 27 27 26 26 25 24 23 23 22 22 22 22 22 21 21 21 21 20 20 20 20 20 20 20 19 19 19 18 18 17 16 16 15 15 15 14 14 14 14 15 14 14 13 13 12 12 12 13 13 12 12 12 12
14 14 13 13 12 11 12 13 13 12 12 13 13 12 10 11 11 10 10 10 10 10 10 10 10 11 11 11 12 12 13 14 15 15 16 17 18 20 20 21 23 25 27 27 27 28 27 26 25 24 23 23 23 23 22 23 22 22 22 22 21 21 21 21 21 21 20 20 20 20 20 19 18 17 16 16 15 15 15 15 15 15 15 14 14 13 13 12 12 13 13 13 13 13 13 12 12
14 15 15 15 13 12 13 13 13 12 12 13 13 13 10 9 10 10 11 11 11 11 10 10 10 10 10 10 11 12 12 12 14 15 15 16 17 19 20 21 22 24 26 26 27 27 27 27 26 25 25 24 24 24 24 24 23 23 23 22 22 22 22 21 22 22 21 20 20 20 20 20 19 17 17 15 15 15 15 15 14 14 14 13 13 12 13 13 13 13 13 13 13 13 13 13 13
14 14 15 16 14 13 13 13 13 12 13 13 13 13 10 9 10 10 10 11 11 11 11 10 10 10 10 10 11 11 11 12 13 14 15 16 17 18 20 21 23 25 26 27 27 27 27 27 26 26 26 25 25 25 25 25 24 24 23 23 22 22 22 22 23 22 22 21 21 21 21 20 19 18 16 15 15 16 15 14 14 14 13 13 12 12 12 12 13 13 13 13 13 13 13 14 13
14 14 14 16 15 14 13 13 15 14 14 13 13 13 11 9 10 10 11 11 11 11 11 11 11 11 10 10 10 10 11 12 13 14 15 16 18 18 19 21 23 25 27 27 27 27 27 26 26 26 26 26 26 25 25 25 25 24 24 23 23 23 23 23 23 23 22 22 22 22 21 20 19 18 17 16 16 15 14 14 14 13 13 13 12 12 12 13 13 13 13 13 14 14 14 14 13
15 16 15 15 15 14 13 13 15 15 15 14 13 13 11 10 10 10 11 11 11 11 11 11 11 11 11 11 11 11 11 11 12 13 15 16 18 19 19 21 22 23 24 25 25 26 26 27 27 26 26 26 26 26 26 26 25 25 25 24 23 23 23 24 23 23 23 23 22 22 21 20 18 18 17 17 16 15 14 14 14 13 13 13 12 12 13 13 13 13 13 14 14 14 14 14 14
15 16 16 16 15 14 13 13 14 15 15 15 14 14 12 10 10 10 11 11 11 11 11 11 11 11 12 12 11 11 11 11 12 13 15 16 18 19 18 19 20 20 21 22 24 25 25 26 26 27 27 27 27 27 27 26 26 26 25 24 24 23 23 24 24 23 23 23 23 22 21 20 19 19 18 17 16 15 14 14 14 14 13 13 13 14 15 14 14 13 14 14 14 14 14 14 14
15 17 17 17 16 14 12 13 14 15 16 15 14 14 12 11 10 10 10 11 11 11 11 12 11 12 12 12 12 12 12 12 12 13 15 16 18 18 18 19 19 18 18 19 21 22 23 24 24 25 26 26 27 27 28 27 27 26 26 25 24 24 24 24 24 24 24 23 23 22 21 21 20 20 18 17 16 15 14 14 14 14 14 13 13 15 15 14 14 14 14 14 14 15 15 15 15
16 18 18 18 18 15 12 14 15 16 16 15 13 13 12 11 10 10 10 11 11 12 12 12 12 12 13 14 13 12 12 12 12 13 14 17 18 17 18 20 19 17 16 17 19 20 22 23 24 25 26 27 27 28 28 28 28 27 26 26 25 25 25 25 25 25 24 23 23 23 22 22 21 20 19 18 16 15 15 14 14 15 14 13 14 15 15 15 14 14 15 15 15 15 15 15 15
17 18 19 18 17 15 13 14 16 17 18 16 14 14 13 11 10 10 10 11 11 11 12 12 12 14 15 15 15 14 13 12 12 13 14 16 17 17 19 20 18 16 16 17 18 21 23 24 25 25 26 26 27 27 28 28 28 28 27 27 26 26 26 25 25 25 24 24 24 23 23 22 21 20 19 18 17 15 15 15 15 15 15 15 16 16 15 15 15 15 16 16 16 16 16 16 15
19 19 20 19 17 16 15 16 18 18 18 16 15 15 13 11 11 11 10 11 11 12 12 13 14 16 17 17 16 14 13 13 12 13 14 16 17 18 19 19 17 16 16 17 19 22 24 25 26 26 26 26 26 27 28 28 28 28 27 27 27 26 26 26 25 25 25 24 24 23 22 22 21 20 19 18 17 16 15 16 16 16 16 17 17 16 16 16 16 16 17 16 16 17 16 17 17
20 20 20 19 18 18 18 19 20 19 19 17 17 17 13 11 11 11 11 11 12 13 14 16 18 19 19 19 17 15 14 13 13 14 15 16 17 18 19 18 17 17 17 19 21 23 25 26 26 26 26 27 27 27 27 27 27 27 28 28 27 26 26 26 26 25 25 24 23 23 22 22 22 21 20 18 17 16 17 17 17 18 18 18 17 16 15 15 17 17 17 17 17 17 18 18 17
20 21 20 19 19 20 20 21 21 19 20 20 19 17 12 11 12 11 12 13 13 14 17 19 20 20 21 20 19 17 16 15 15 15 16 17 17 18 18 18 18 18 20 22 24 25 27 27 26 26 27 27 27 27 27 26 27 27 28 28 27 27 27 27 26 25 24 24 23 23 22 22 22 21 20 18 17 17 18 18 18 19 19 18 17 16 16 16 17 17 17 18 18 19 18 18 17
20 21 19 18 18 20 21 23 23 21 21 22 21 18 14 13 13 12 13 13 14 15 19 21 20 20 21 21 20 18 17 17 17 17 17 18 18 19 19 18 19 20 22 24 26 27 28 27 27 26 27 27 27 27 27 26 26 27 28 28 28 28 27 27 26 25 25 24 24 23 23 22 22 21 20 18 18 19 19 20 19 20 19 18 17 16 16 16 16 17 17 18 19 19 18 17 15
20 20 20 20 19 20 22 24 24 22 22 23 22 21 19 15 13 12 13 13 13 16 20 20 21 21 20 20 20 19 18 18 18 18 18 19 19 19 19 19 20 22 24 25 26 27 28 28 27 27 27 28 28 27 26 26 27 27 28 28 28 28 27 27 26 26 25 25 24 24 23 23 22 21 20 19 20 21 21 21 21 20 19 19 17 17 17 16 17 17 17 19 19 19 18 16 14
22 22 22 21 21 23 24 23 23 23 24 25 23 21 23 21 16 12 12 14 15 17 20 21 21 21 20 20 21 19 18 18 18 19 18 18 19 18 19 20 22 24 25 26 27 28 29 29 29 28 28 28 28 28 27 27 27 28 29 29 29 28 28 27 26 26 25 25 25 25 24 23 22 21 21 21 21 21 21 21 21 21 20 19 18 17 17 17 17 17 18 19 19 19 17 15 14
23 24 23 22 22 24 24 24 25 24 26 27 24 22 25 24 18 14 15 16 18 19 20 21 21 20 19 20 19 18 18 18 18 18 18 18 18 19 21 23 24 26 27 28 29 29 30 30 30 29 29 29 29 28 28 28 29 29 29 29 29 28 28 27 26 26 26 26 25 25 24 23 22 22 21 22 22 21 21 21 22 22 20 19 18 18 17 17 17 17 19 19 19 19 17 14 14
25 26 26 25 26 26 27 27 27 26 30 30 25 23 24 22 19 19 20 20 21 21 21 22 21 19 18 17 17 16 17 18 18 18 19 19 19 21 23 24 26 28 29 30 31 30 30 31 31 31 30 30 30 29 30 30 30 30 30 29 29 28 27 27 26 26 26 26 25 24 23 23 22 22 22 22 22 21 21 22 23 22 21 20 19 18 18 17 18 19 20 20 20 19 17 15 14
29 29 29 30 30 29 29 29 28 29 31 29 24 23 25 24 21 20 20 21 21 21 22 21 20 18 17 16 15 16 17 18 18 19 20 20 21 23 25 26 27 29 31 32 32 32 31 31 32 32 31 31 30 30 30 30 30 30 30 29 29 28 28 27 27 27 26 26 25 24 23 23 22 22 22 22 22 22 22 24 24 23 22 20 19 18 18 18 19 21 21 20 20 20 18 16 15
31 29 29 33 32 29 29 29 31 32 28 25 23 24 27 27 22 19 19 21 21 21 21 19 19 18 16 15 15 16 17 18 18 20 21 21 22 24 26 27 29 31 32 33 33 33 33 33 33 32 32 32 32 31 31 30 30 30 30 29 29 28 28 28 28 27 26 26 25 25 24 23 22 22 22 23 22 22 24 26 25 24 22 21 20 19 19 20 22 22 22 20 20 21 19 18 17
33 31 31 35 32 30 30 30 31 31 27 26 26 28 28 25 20 19 20 21 21 21 20 18 18 18 16 15 16 17 18 19 20 21 22 23 24 25 26 28 29 30 32 34 35 34 34 34 34 33 33 32 32 32 31 31 31 30 30 30 29 28 28 28 27 27 26 26 26 25 24 23 23 23 23 23 23 23 26 27 26 24 23 21 20 20 21 23 24 23 22 21 22 22 21 20 19
31 31 32 34 32 32 33 28 26 29 28 27 28 30 28 23 19 19 20 20 21 20 20 19 17 17 17 16 17 18 19 20 21 22 23 24 25 26 28 29 30 30 31 33 35 36 36 36 35 35 34 33 32 32 32 31 31 31 30 30 29 28 28 27 27 27 26 26 26 25 24 24 24 24 23 24 24 26 28 28 26 24 23 21 21 22 23 25 25 25 23 23 24 24 23 22 20
32 30 30 32 29 30 29 25 26 30 30 30 32 30 26 21 20 20 20 19 19 19 19 18 17 17 18 19 19 21 21 22 23 24 25 26 26 27 29 30 30 31 32 33 35 37 38 37 36 35 35 34 33 33 33 32 32 31 31 30 29 28 28 28 27 27 27 27 26 26 26 25 25 25 24 25 26 28 30 28 26 24 22 22 23 24 26 27 27 27 25 25 26 25 24 22 20
34 32 32 31 27 25 26 28 32 36 36 34 32 28 21 19 20 20 20 19 18 18 18 18 18 18 20 22 22 23 24 24 25 26 27 27 28 29 30 31 31 32 33 34 36 37 38 38 36 36 35 35 35 34 34 33 32 32 31 30 30 29 29 28 28 29 29 28 27 27 27 26 26 26 26 26 28 30 30 28 26 24 23 23 24 25 28 29 29 29 28 27 28 27 25 23 22
33 34 33 32 30 28 30 34 37 37 36 31 27 25 20 18 19 18 19 19 18 18 19 18 19 19 21 24 24 24 25 27 27 28 29 30 30 31 31 31 32 33 33 35 36 37 39 38 36 36 36 37 36 35 35 34 34 33 32 31 31 30 30 29 30 30 29 29 29 28 28 27 27 27 27 28 30 32 30 27 25 24 24 24 24 27 29 30 31 32 31 29 30 30 29 26 26
33 34 33 33 34 34 33 35 35 34 34 29 23 23 21 19 21 20 19 19 18 18 19 19 20 21 23 25 24 24 25 28 29 30 32 32 32 31 31 32 33 33 34 36 37 37 38 38 36 37 38 38 39 38 36 36 34 34 33 33 32 31 31 31 32 31 30 30 30 29 29 28 28 28 28 30 33 32 28 26 26 25 24 25 25 28 30 32 35 36 33 32 34 35 34 32 31
33 33 33 33 35 36 35 34 32 30 32 30 24 22 21 19 20 20 19 20 19 18 19 20 21 22 25 26 25 25 26 28 30 33 33 32 31 31 32 33 33 34 35 37 37 38 38 38 37 37 39 40 40 39 37 37 36 35 35 34 33 33 32 33 33 32 32 31 31 30 30 30 30 30 31 33 33 30 27 26 26 25 25 25 26 29 32 35 39 38 35 35 38 40 40 37 35
33 33 33 33 33 33 31 29 27 26 29 30 28 25 21 18 18 18 19 19 19 20 20 21 23 24 27 28 26 26 28 27 29 32 32 31 30 30 31 33 34 34 36 38 38 38 39 38 38 39 40 41 42 41 39 38 37 37 36 36 35 35 35 34 34 33 33 33 33 32 31 31 31 32 34 35 32 28 26 26 25 25 25 26 28 31 35 39 41 38 34 37 42 43 42 39 38
32 31 33 33 32 31 30 28 26 27 29 30 32 30 20 17 18 17 17 19 20 21 22 23 25 26 27 28 26 27 31 30 29 31 31 31 30 29 31 33 34 36 38 39 39 39 39 39 39 40 41 43 43 42 40 39 39 38 38 37 37 37 37 36 35 35 35 35 34 33 33 33 33 35 37 34 29 26 26 25 24 25 25 27 31 34 38 42 41 35 34 39 42 41 40 38 38
30 30 31 31 31 31 33 32 30 32 34 32 35 34 22 16 19 18 18 20 21 23 24 25 27 27 28 28 27 28 31 32 33 32 31 32 31 29 30 32 34 36 38 40 40 40 40 40 41 42 43 43 43 43 42 41 40 40 39 39 39 40 39 38 38 37 37 36 35 35 35 35 36 39 37 31 27 26 25 24 25 25 26 29 33 37 40 42 38 33 34 39 40 38 37 37 37